Retour au catalogue

ARIANE 42P+ DEB

ActifHEO
NORAD 34198·DEBRIS·🇫🇷 France

Lancé Oct 28, 1992 depuis Guiana Space Centre

Loading…

Prochains Passages (prochaines 24 heures)

TLE

FraisSource: Space-Track

Époque: Sep 13, 2026, 18:19 UTC

1 34198U 92072AE  26256.76363795  .00001590  00000-0  11661-1 0  9993
2 34198   8.6790 122.3618 6540912 119.1265  58.8347  3.04690727291704

Suivez ARIANE 42P+ DEB en temps réel avec AllMySat

Download on the App Store